Update 08.04.19 Menü aufgeräumt und Stützis neue Wetterseite verlinkt
Besuchen Sie den Menüpunkt "Almanach / History" hier gibt es viele interessante Statistiken aus den Daten meiner Wetterstation (seit 2011)

Rindlberg West Mehr Informationen Rindlberg West


Stuetzi - Rindlberg Ost Mehr Informationen Stuetzi - Rindlberg Ost


Regenradar Mehr Informationen rain snow radar


Sie finden meine Wetter-Infos auch auf:

Weather Underground

AWEKAS



Wählen sie eine andere Periode ( ausblenden )

Einheiten Zeitraum Benutzerdef. Zeitraum Direkt zu
metrisch Englisch Beide
Täglich Wöchentlich Monatlich Jährlich
Beide Datumseingaben nutzen um einen Bereich festzulegen
vorheriger Tag
Mit diesem Datum

WU Grafiken für diese Periode ( klicken )


Täglich Zusammenfassung für Montag 17 Juni 2019
Zeit Temp. ( °C ) Taupt. ( °C ) Wind ( km/h ) von Windböen ( km/h ) Luftdruck ( hPa ) Luftf.( % ) Regenrate ( cm )
Hoch14,6 12,2 8,0 NW ( 34/62 ) 9,7 1026,0 90 1,00
Durchchnittswerte13,2 11,1 0,8 Windstille #68/80 2,7 1024,9 87 1,40
Tief11,9 10,0 -   0,0 1024,9 83 -
Täglich tabellarische Details für Montag 17 Juni 2019
Zeit Temp. ( °C ) Taupt. ( °C ) Wind ( km/h ) von Windböen ( km/h ) Luftdruck ( hPa ) Luftf.( % ) Regenrate ( cm )
00:04 14,6 11,7   Windstille   1024,9 83 -
00:09 14,6 11,7   Windstille   1024,9 83 0,30
00:14 14,6 11,7   Windstille   1026,0 83 0,50
00:19 14,6 11,7 6,4 NNW   1026,0 83 0,50
00:24 14,6 11,9 8,0 NW 6,4 1026,0 84 0,50
00:29 14,5 11,8   Windstille 8,0 1024,9 84 0,50
00:34 14,5 12,2   Windstille 9,7 1024,9 86 0,50
00:39 14,4 12,1 6,4 NNW 9,7 1024,9 86 0,50
00:44 14,4 12,1 4,8 NW 8,0 1024,9 86 0,80
00:49 14,3 12,0 3,2 NW 6,4 1024,9 86 1,00
00:54 14,3 12,0 4,8 NW 6,4 1024,9 86 1,00
00:59 14,2 12,1 4,8 NNW 6,4 1024,9 87 1,00
01:04 14,2 12,1   Windstille 8,0 1024,9 87 1,00
01:09 14,2 12,1   Windstille 8,0 1024,9 87 0,80
01:14 14,1 12,0   Windstille 6,4 1024,9 87 0,80
01:19 14,1 12,0 6,4 NNW 4,8 1024,9 87 0,80
01:24 14,1 12,0   Windstille 6,4 1024,9 87 0,80
01:29 14,1 12,0 4,8 NW 6,4 1024,9 87 0,80
01:34 14,0 11,9   Windstille 6,4 1024,9 87 0,80
01:39 14,0 11,9   Windstille 6,4 1024,9 87 0,50
01:44 14,0 11,9   Windstille 6,4 1024,9 87 -
01:49 13,9 11,8 3,2 NW 6,4 1024,9 87 -
01:54 13,9 11,8 4,8 NW 6,4 1024,9 87 -
01:59 13,9 11,8   Windstille 6,4 1024,9 87 -
02:04 13,8 11,7   Windstille 6,4 1024,9 87 -
02:09 13,8 11,7   Windstille 6,4 1024,9 87 -
02:14 13,8 11,7   Windstille 4,8 1024,9 87 -
02:19 13,8 11,7   Windstille   1024,9 87 -
02:24 13,7 11,6   Windstille   1024,9 87 -
02:29 13,7 11,6   Windstille   1024,9 87 -
02:34 13,7 11,6   Windstille   1024,9 87 -
02:39 13,6 11,5   Windstille   1024,9 87 -
02:44 13,5 11,4   Windstille   1024,9 87 -
02:49 13,5 11,4   Windstille   1024,9 87 -
02:54 13,4 11,1   Windstille   1024,9 86 -
02:59 13,3 11,0   Windstille   1024,9 86 -
03:04 13,2 11,1   Windstille   1024,9 87 -
03:09 13,0 10,9   Windstille   1024,9 87 -
03:14 12,9 10,8   Windstille   1024,9 87 -
03:19 12,9 10,8   Windstille   1024,9 87 -
03:24 12,8 10,7   Windstille   1024,9 87 -
03:29 12,7 10,6   Windstille   1024,9 87 -
03:34 12,7 10,6   Windstille   1024,9 87 -
03:39 12,7 10,6   Windstille   1024,9 87 -
03:44 12,6 10,5   Windstille   1024,9 87 -
03:49 12,7 10,6   Windstille 6,4 1024,9 87 -
03:54 12,6 10,7   Windstille 6,4 1024,9 88 -
03:59 12,6 10,7   Windstille 6,4 1024,9 88 -
04:04 12,6 10,7   Windstille 6,4 1024,9 88 -
04:09 12,6 10,7 4,8 NO 4,8 1024,9 88 -
04:14 12,6 10,7   Windstille 4,8 1024,9 88 -
04:19 12,6 10,7   Windstille 4,8 1024,9 88 -
04:24 12,5 10,6   Windstille 4,8 1024,9 88 -
04:29 12,5 10,6   Windstille   1024,9 88 -
04:34 12,4 10,5   Windstille   1024,9 88 -
04:39 12,3 10,4   Windstille   1024,9 88 -
04:44 12,3 10,4   Windstille   1024,9 88 -
04:49 12,2 10,3   Windstille   1024,9 88 -
04:54 12,2 10,3   Windstille   1024,9 88 -
04:59 12,2 10,3   Windstille   1024,9 88 -
05:04 12,2 10,3   Windstille   1024,9 88 -
05:09 12,2 10,3   Windstille   1024,9 88 -
05:14 12,2 10,3   Windstille   1024,9 88 -
05:19 12,2 10,3   Windstille   1024,9 88 -
05:24 12,1 10,2   Windstille   1024,9 88 -
05:29 12,1 10,2   Windstille   1024,9 88 -
05:34 12,0 10,1   Windstille   1024,9 88 -
05:39 12,0 10,1   Windstille   1024,9 88 -
05:44 12,0 10,1   Windstille   1024,9 88 -
05:49 12,0 10,1   Windstille   1024,9 88 -
05:54 11,9 10,0   Windstille   1024,9 88 -
05:59 11,9 10,1   Windstille   1024,9 89 -
06:04 12,0 10,2   Windstille   1024,9 89 -
06:09 12,2 10,4   Windstille   1024,9 89 -
06:14 12,3 10,7   Windstille   1024,9 90 -
06:19 12,4 10,8   Windstille   1024,9 90 -
06:24 12,5 10,9   Windstille 3,2 1024,9 90 -
06:29 12,6 11,0   Windstille 4,8 1024,9 90 -
06:34 12,7 11,1   Windstille 4,8 1024,9 90 -
06:39 12,8 11,2   Windstille 4,8 1024,9 90 -
Täglich Zusammenfassung für Montag 17 Juni 2019
Zeit Temp. ( °C ) Taupt. ( °C ) Wind ( km/h ) von Windböen ( km/h ) Luftdruck ( hPa ) Luftf.( % ) Regenrate ( cm )
Hoch14,6 12,2 8,0 NW ( 34/62 ) 9,7 1026,0 90 1,00
Durchchnittswerte13,2 11,1 0,8 Windstille #68/80 2,7 1024,9 87 1,40
Tief11,9 10,0 -   0,0 1024,9 83 -
Täglich tabellarische Details für Montag 17 Juni 2019
Zeit Temp. ( °C ) Taupt. ( °C ) Wind ( km/h ) von Windböen ( km/h ) Luftdruck ( hPa ) Luftf.( % ) Regenrate ( cm )
00:04 14,6 11,7   Windstille   1024,9 83 -
00:09 14,6 11,7   Windstille   1024,9 83 0,30
00:14 14,6 11,7   Windstille   1026,0 83 0,50
00:19 14,6 11,7 6,4 NNW   1026,0 83 0,50
00:24 14,6 11,9 8,0 NW 6,4 1026,0 84 0,50
00:29 14,5 11,8   Windstille 8,0 1024,9 84 0,50
00:34 14,5 12,2   Windstille 9,7 1024,9 86 0,50
00:39 14,4 12,1 6,4 NNW 9,7 1024,9 86 0,50
00:44 14,4 12,1 4,8 NW 8,0 1024,9 86 0,80
00:49 14,3 12,0 3,2 NW 6,4 1024,9 86 1,00
00:54 14,3 12,0 4,8 NW 6,4 1024,9 86 1,00
00:59 14,2 12,1 4,8 NNW 6,4 1024,9 87 1,00
01:04 14,2 12,1   Windstille 8,0 1024,9 87 1,00
01:09 14,2 12,1   Windstille 8,0 1024,9 87 0,80
01:14 14,1 12,0   Windstille 6,4 1024,9 87 0,80
01:19 14,1 12,0 6,4 NNW 4,8 1024,9 87 0,80
01:24 14,1 12,0   Windstille 6,4 1024,9 87 0,80
01:29 14,1 12,0 4,8 NW 6,4 1024,9 87 0,80
01:34 14,0 11,9   Windstille 6,4 1024,9 87 0,80
01:39 14,0 11,9   Windstille 6,4 1024,9 87 0,50
01:44 14,0 11,9   Windstille 6,4 1024,9 87 -
01:49 13,9 11,8 3,2 NW 6,4 1024,9 87 -
01:54 13,9 11,8 4,8 NW 6,4 1024,9 87 -
01:59 13,9 11,8   Windstille 6,4 1024,9 87 -
02:04 13,8 11,7   Windstille 6,4 1024,9 87 -
02:09 13,8 11,7   Windstille 6,4 1024,9 87 -
02:14 13,8 11,7   Windstille 4,8 1024,9 87 -
02:19 13,8 11,7   Windstille   1024,9 87 -
02:24 13,7 11,6   Windstille   1024,9 87 -
02:29 13,7 11,6   Windstille   1024,9 87 -
02:34 13,7 11,6   Windstille   1024,9 87 -
02:39 13,6 11,5   Windstille   1024,9 87 -
02:44 13,5 11,4   Windstille   1024,9 87 -
02:49 13,5 11,4   Windstille   1024,9 87 -
02:54 13,4 11,1   Windstille   1024,9 86 -
02:59 13,3 11,0   Windstille   1024,9 86 -
03:04 13,2 11,1   Windstille   1024,9 87 -
03:09 13,0 10,9   Windstille   1024,9 87 -
03:14 12,9 10,8   Windstille   1024,9 87 -
03:19 12,9 10,8   Windstille   1024,9 87 -
03:24 12,8 10,7   Windstille   1024,9 87 -
03:29 12,7 10,6   Windstille   1024,9 87 -
03:34 12,7 10,6   Windstille   1024,9 87 -
03:39 12,7 10,6   Windstille   1024,9 87 -
03:44 12,6 10,5   Windstille   1024,9 87 -
03:49 12,7 10,6   Windstille 6,4 1024,9 87 -
03:54 12,6 10,7   Windstille 6,4 1024,9 88 -
03:59 12,6 10,7   Windstille 6,4 1024,9 88 -
04:04 12,6 10,7   Windstille 6,4 1024,9 88 -
04:09 12,6 10,7 4,8 NO 4,8 1024,9 88 -
04:14 12,6 10,7   Windstille 4,8 1024,9 88 -
04:19 12,6 10,7   Windstille 4,8 1024,9 88 -
04:24 12,5 10,6   Windstille 4,8 1024,9 88 -
04:29 12,5 10,6   Windstille   1024,9 88 -
04:34 12,4 10,5   Windstille   1024,9 88 -
04:39 12,3 10,4   Windstille   1024,9 88 -
04:44 12,3 10,4   Windstille   1024,9 88 -
04:49 12,2 10,3   Windstille   1024,9 88 -
04:54 12,2 10,3   Windstille   1024,9 88 -
04:59 12,2 10,3   Windstille   1024,9 88 -
05:04 12,2 10,3   Windstille   1024,9 88 -
05:09 12,2 10,3   Windstille   1024,9 88 -
05:14 12,2 10,3   Windstille   1024,9 88 -
05:19 12,2 10,3   Windstille   1024,9 88 -
05:24 12,1 10,2   Windstille   1024,9 88 -
05:29 12,1 10,2   Windstille   1024,9 88 -
05:34 12,0 10,1   Windstille   1024,9 88 -
05:39 12,0 10,1   Windstille   1024,9 88 -
05:44 12,0 10,1   Windstille   1024,9 88 -
05:49 12,0 10,1   Windstille   1024,9 88 -
05:54 11,9 10,0   Windstille   1024,9 88 -
05:59 11,9 10,1   Windstille   1024,9 89 -
06:04 12,0 10,2   Windstille   1024,9 89 -
06:09 12,2 10,4   Windstille   1024,9 89 -
06:14 12,3 10,7   Windstille   1024,9 90 -
06:19 12,4 10,8   Windstille   1024,9 90 -
06:24 12,5 10,9   Windstille 3,2 1024,9 90 -
06:29 12,6 11,0   Windstille 4,8 1024,9 90 -
06:34 12,7 11,1   Windstille 4,8 1024,9 90 -
06:39 12,8 11,2   Windstille 4,8 1024,9 90 -

Lade ein Kopie deiner Daten  here

Meine Wetterdaten gespeichert auf Weather Underground. Script entwickelt von Jim McMurry. Angepasst für das Template von Leuven-Template.eu